Regional Weather Roundup
Issued by NWS State College, PA

Home | Current Version | Previous Version | Graphics & Text | Print | Product List | Glossary Off
Versions: 1 2 3 4 5 6 7 8 9 10 11 12 13 14 15 16 17 18 19 20 21 22 23 24 25 26 27 28 29 30 31 32 33 34 35 36 37 38 39 40 41 42 43 44 45 46 47 48 49 50

000
ASUS41 KCTP 021310
RWRCTP

REGIONAL WEATHER ROUNDUP
NATIONAL WEATHER SERVICE STATE COLLEGE PA
900 AM EDT WED SEP 02 2015

Note: "fair" indicates few or no clouds below 12,000 feet with no
significant weather and/or obstructions to visibility.

* = STATION THAT DOES NOT REPORT PRECIPITATION /E.G. RAIN...SNOW...ETC/
    THUNDER OR FOG.

PAZ002>004-007>009-013>016-020>023-029>032-021400-
WESTERN PENNSYLVANIA

CITY           SKY/WX    TMP DP  RH WIND       PRES   REMARKS
ERIE           SUNNY     75  65  70 S8        30.08S
MEADVILLE      MOSUNNY   72  65  78 S5        30.12S
FRANKLIN*      SUNNY     72  66  83 S6        30.14S
NEW CASTLE     FAIR      72  72 100 CALM      30.12S FOG
BEAVER COUNTY  SUNNY     75  66  73 CALM      30.13S
BUTLER*        PTSUNNY   70  68  94 CALM      30.14S
PITTSBURGH INT CLOUDY    73  67  81 W3        30.12S
PITTSBURGH     PTSUNNY   74  64  71 CALM      30.11F
INDIANA*       NOT AVBL
LATROBE        PTSUNNY   73  70  88 SW7       30.13F
WASHINGTON CO* PTSUNNY   72  68  88 CALM      30.14S
$$

PAZ004>006-010>012-017>019-024>028-033>037-041-042-045-046-049>053-021400-
CENTRAL PENNSYLVANIA

CITY           SKY/WX    TMP DP  RH WIND       PRES   REMARKS
BRADFORD       SUNNY     65  62  90 CALM      30.14F FOG
DUBOIS         SUNNY     73  65  75 CALM      30.13F HAZE
CLEARFIELD     FOG       65  64  97 CALM      30.13F VSB 1
JOHNSTOWN      SUNNY     70  64  81 SW3       30.17S
ALTOONA          N/A     71  65  81 MISG      30.14S
STATE COLLEGE  SUNNY     68  66  94 CALM      30.12S
WILLIAMSPORT   CLOUDY    69  65  86 W8        30.07S FOG
SELINSGROVE    CLOUDY    67  65  93 CALM      30.08S FOG
FT INDIANTOWN  MOSUNNY   71  66  85 CALM      30.06S
CAPITAL CITY   MOSUNNY   73  65  75 CALM      30.06S
HARRISBURG     PTSUNNY   74  66  76 NW6       30.05F
YORK           PTSUNNY   70  67  90 CALM      30.06F FOG
$$

PAZ038>040-043-044-047-048-054-055-060>062-067>071-021400-
EASTERN PENNSYLVANIA

CITY           SKY/WX    TMP DP  RH WIND       PRES   REMARKS
SCRANTON       SUNNY     70  62  76 CALM      30.09R
MOUNT POCONO   SUNNY     72  65  78 CALM      30.11S
ALLENTOWN      MOSUNNY   72  66  81 CALM      30.06S
QUAKERTOWN*    MOSUNNY   72  66  83 CALM      30.07S
READING        MOSUNNY   72  67  84 CALM      30.05S FOG
LANCASTER      PTSUNNY   72  67  84 W5        30.06S HAZE
COATESVILLE    PTSUNNY   75  68  78 W3        30.07S
POTTSTOWN      MOSUNNY   72  68  87 CALM      30.07S
BLUE BELL      MOSUNNY   75  72  88 CALM      30.05S
DOYLESTOWN     MOSUNNY   73  69  87 CALM      30.05S
WILLOW GROVE   NOT AVBL
NORTH PHILA    CLOUDY    73  69  87 CALM      30.06S FOG
PHILADELPHIA   PTSUNNY   77  71  82 SE5       30.04S HAZE
$$



USA.gov is the U.S. government's official web portal to all federal, state and local government web resources and services.